"Period start","avg(HW err(1)/warn(2) (#))","avg(Visibility (m))","avg(Weather code (#))","avg(Precip intensity (mm/h))","min(HW err(1)/warn(2) (#))","max(HW err(1)/warn(2) (#))","std(HW err(1)/warn(2) (#))","med(HW err(1)/warn(2) (#))","min(Visibility (m))","max(Visibility (m))","std(Visibility (m))","med(Visibility (m))","min(Weather code (#))","max(Weather code (#))","std(Weather code (#))","med(Weather code (#))","min(Precip intensity (mm/h))","max(Precip intensity (mm/h))","std(Precip intensity (mm/h))","med(Precip intensity (mm/h))"
2016-05-14 00:00:00,2,3490,77,0.06,2,2,0,2,2329,5377,913,3348,77,77,0,77,0.00,0.10,0.03,0.05
2016-05-14 00:10:00,2,5664,77,0.03,2,2,0,2,3249,9357,1824,5398,77,77,0,77,0.00,0.05,0.02,0.05
2016-05-14 00:20:00,2,4518,77,0.03,2,2,0,2,1826,8236,2091,4596,77,77,0,77,0.00,0.10,0.03,0.00
2016-05-14 00:30:00,2,2766,49,0.03,2,2,0,2,1193,4816,1188,3228,10,77,32,71,0.00,0.15,0.05,0.00
2016-05-14 00:40:00,2,1707,77,0.08,2,2,0,2,1043,2611,579,1616,77,77,0,77,0.00,0.20,0.06,0.08
2016-05-14 00:50:00,2,2095,77,0.06,2,2,0,2,1095,3757,725,2000,77,77,0,77,0.00,0.20,0.06,0.05
2016-05-14 01:00:00,2,5135,53,0.14,2,2,0,2,1842,7914,2280,5653,10,77,28,71,0.00,0.75,0.24,0.03
2016-05-14 01:10:00,2,6818,53,0.10,2,2,0,2,2815,13493,4024,5322,10,77,28,71,0.00,0.50,0.15,0.03
2016-05-14 01:20:00,2,7207,10,0.00,2,2,0,2,2898,19239,4886,5612,10,10,0,10,0.00,0.00,0.00,0.00
2016-05-14 01:30:00,2,18776,13,0.01,2,2,0,2,1921,30470,9369,20780,0,71,20,10,0.00,0.05,0.02,0.00
2016-05-14 01:40:00,2,4291,59,0.22,2,2,0,2,1240,10393,3496,2366,10,71,24,71,0.00,0.75,0.25,0.15
2016-05-14 01:50:00,2,7915,16,0.01,2,2,0,2,2350,13487,4203,8473,10,71,18,10,0.00,0.10,0.03,0.00
2016-05-14 02:00:00,2,10694,47,0.02,2,2,0,2,1789,19763,5954,10169,10,71,30,71,0.00,0.10,0.03,0.00
2016-05-14 02:10:00,2,7708,10,0.00,2,2,0,2,4146,12916,2679,7452,10,10,0,10,0.00,0.00,0.00,0.00
2016-05-14 02:20:00,2,5724,10,0.00,2,2,0,2,4569,6975,844,5618,10,10,0,10,0.00,0.00,0.00,0.00
2016-05-14 02:30:00,2,6216,10,0.00,2,2,0,2,5152,8763,1022,6090,10,10,0,10,0.00,0.00,0.00,0.00
2016-05-14 02:40:00,2,5269,10,0.00,2,2,0,2,4478,6856,749,4985,10,10,0,10,0.00,0.00,0.00,0.00
2016-05-14 02:50:00,2,4535,10,0.00,2,2,0,2,3485,5767,634,4550,10,10,0,10,0.00,0.00,0.00,0.00
2016-05-14 03:00:00,2,3871,42,0.04,2,2,0,2,3251,4686,430,3992,10,77,32,40,0.00,0.15,0.05,0.03
2016-05-14 03:10:00,2,2728,77,0.29,2,2,0,2,1950,3317,399,2768,77,77,0,77,0.10,0.50,0.12,0.25
2016-05-14 03:20:00,2,1851,75,0.34,2,2,0,2,1548,2213,218,1812,71,77,3,77,0.15,0.70,0.16,0.30
2016-05-14 03:30:00,2,1926,75,0.75,2,2,0,2,1400,2387,327,2016,71,77,3,77,0.25,1.85,0.42,0.68
2016-05-14 03:40:00,2,1392,71,1.98,2,2,0,2,1192,1530,99,1391,71,71,0,71,0.95,3.75,0.76,1.90
2016-05-14 03:50:00,2,1892,71,0.42,2,2,0,2,1468,2337,271,1892,71,71,0,71,0.20,0.90,0.23,0.40
2016-05-14 04:00:00,2,2145,75,0.31,2,2,0,2,1689,2569,268,2129,71,77,3,77,0.10,0.70,0.20,0.25
2016-05-14 04:10:00,2,1477,73,1.06,2,2,0,2,1209,1763,152,1496,71,77,3,71,0.60,1.75,0.37,0.97
2016-05-14 04:20:00,2,1429,71,1.59,2,2,0,2,1186,1627,128,1454,71,71,0,71,0.90,2.60,0.45,1.48
2016-05-14 04:30:00,2,1043,71,2.24,2,2,0,2,936,1247,101,1028,71,71,0,71,1.50,3.20,0.61,2.20
2016-05-14 04:40:00,2,1071,71,2.19,2,2,0,2,831,1300,137,1089,71,71,0,71,1.65,2.60,0.32,2.25
2016-05-14 04:50:00,2,998,71,1.94,2,2,0,2,721,1264,183,987,71,71,0,71,1.55,2.75,0.35,1.90
2016-05-14 05:00:00,2,750,72,4.09,2,2,0,2,670,873,68,737,71,72,0,72,2.30,7.60,1.71,3.38
2016-05-14 05:10:00,2,803,72,7.21,2,2,0,2,574,1135,196,714,71,72,0,72,3.80,11.15,2.46,6.78
2016-05-14 05:20:00,2,937,71,5.26,2,2,0,2,805,1126,92,939,71,71,0,71,3.65,6.90,0.93,4.93
2016-05-14 05:30:00,2,878,71,3.61,2,2,0,2,751,998,76,874,71,71,0,71,1.95,4.90,1.02,3.75
2016-05-14 05:40:00,2,874,71,1.84,2,2,0,2,714,1017,106,917,71,71,0,71,1.30,2.40,0.36,1.90
2016-05-14 05:50:00,2,874,71,2.02,2,2,0,2,761,1105,92,860,71,71,0,71,1.20,3.50,0.76,1.77
2016-05-14 06:00:00,2,1052,71,3.41,2,2,0,2,793,1490,203,1052,71,71,0,71,2.70,4.30,0.52,3.30
2016-05-14 06:10:00,2,1421,71,2.88,2,2,0,2,1186,1633,131,1442,71,71,0,71,1.80,3.85,0.71,3.10
2016-05-14 06:20:00,2,1458,71,2.58,2,2,0,2,1133,1793,237,1437,71,71,0,71,1.25,3.70,0.78,2.75
2016-05-14 06:30:00,2,1268,71,1.68,2,2,0,2,1103,1542,144,1220,71,71,0,71,0.90,2.40,0.46,1.60
2016-05-14 06:40:00,2,1157,71,1.95,2,2,0,2,1031,1543,160,1096,71,71,0,71,1.10,2.45,0.43,1.98
2016-05-14 06:50:00,2,1233,71,1.23,2,2,0,2,1087,1466,126,1224,71,71,0,71,0.85,1.65,0.27,1.33
2016-05-14 07:00:00,2,1672,71,0.82,2,2,0,2,1475,2116,190,1596,71,71,0,71,0.50,1.15,0.23,0.85
2016-05-14 07:10:00,2,1532,71,0.96,2,2,0,2,1331,1750,132,1537,71,71,0,71,0.55,1.55,0.29,0.88
2016-05-14 07:20:00,2,1681,71,0.76,2,2,0,2,1443,1951,161,1674,71,71,0,71,0.60,0.95,0.14,0.78
2016-05-14 07:30:00,2,1930,74,0.65,2,2,0,2,1742,2317,164,1903,71,77,3,74,0.40,0.85,0.17,0.75
2016-05-14 07:40:00,2,1809,77,0.92,2,2,0,2,1401,2639,350,1769,77,77,0,77,0.30,1.50,0.32,0.95
2016-05-14 07:50:00,2,1366,72,0.94,2,2,0,2,1116,1763,187,1330,71,77,2,71,0.55,1.40,0.28,0.97
2016-05-14 08:00:00,2,1518,71,1.15,2,2,0,2,1293,1848,164,1506,71,71,0,71,0.95,1.55,0.18,1.12
2016-05-14 08:10:00,2,1163,71,1.40,2,2,0,2,873,1553,190,1127,71,71,0,71,1.00,2.30,0.38,1.35
2016-05-14 08:20:00,2,999,71,2.10,2,2,0,2,841,1135,89,1010,71,71,0,71,1.15,3.20,0.68,1.90
2016-05-14 08:30:00,2,1392,71,1.24,2,2,0,2,1124,1643,154,1342,71,71,0,71,0.95,1.65,0.21,1.23
2016-05-14 08:40:00,2,1655,71,0.91,2,2,0,2,1318,2024,261,1566,71,71,0,71,0.50,1.55,0.31,0.85
2016-05-14 08:50:00,2,1919,71,0.82,2,2,0,2,1631,2343,223,1855,71,71,0,71,0.50,1.00,0.14,0.85
2016-05-14 09:00:00,2,1561,71,0.99,2,2,0,2,1270,1866,204,1498,71,71,0,71,0.60,1.40,0.28,0.95
2016-05-14 09:10:00,2,1251,71,2.00,2,2,0,2,1107,1403,94,1222,71,71,0,71,1.45,3.00,0.44,1.95
2016-05-14 09:20:00,2,1248,71,1.94,2,2,0,2,1098,1434,129,1183,71,71,0,71,1.50,2.60,0.38,1.78
2016-05-14 09:30:00,2,1124,71,1.94,2,2,0,2,1012,1284,85,1133,71,71,0,71,1.55,2.95,0.38,1.90
2016-05-14 09:40:00,2,1175,71,1.81,2,2,0,2,847,1479,202,1186,71,71,0,71,1.15,2.70,0.51,1.65
2016-05-14 09:50:00,2,1313,71,1.41,2,2,0,2,1159,1478,99,1299,71,71,0,71,0.90,1.90,0.30,1.43
2016-05-14 10:00:00,2,1171,71,1.71,2,2,0,2,979,1580,176,1125,71,71,0,71,0.65,2.45,0.62,1.83
2016-05-14 10:10:00,2,1106,72,1.86,2,2,0,2,1035,1186,54,1108,71,77,2,71,1.35,2.60,0.40,1.75
2016-05-14 10:20:00,2,1056,72,1.79,2,2,0,2,961,1282,88,1052,71,77,2,71,1.25,2.15,0.30,1.85
2016-05-14 10:30:00,2,1384,71,1.76,2,2,0,2,1036,1625,183,1426,71,71,0,71,1.25,2.40,0.33,1.73
2016-05-14 10:40:00,2,1829,72,2.02,2,2,0,2,1389,2253,284,1856,71,77,2,71,1.45,2.50,0.34,2.03
2016-05-14 10:50:00,2,2079,71,1.64,2,2,0,2,1732,2512,251,2088,71,71,0,71,1.05,2.40,0.40,1.65
2016-05-14 11:00:00,2,1672,71,2.39,2,2,0,2,1477,1992,159,1688,71,71,0,71,1.45,3.40,0.64,2.45
2016-05-14 11:10:00,2,1332,71,2.08,2,2,0,2,952,1726,207,1326,71,71,0,71,1.50,3.00,0.40,1.95
2016-05-14 11:20:00,2,1484,71,1.98,2,2,0,2,988,1671,202,1561,71,71,0,71,1.30,2.55,0.47,2.12
2016-05-14 11:30:00,2,1583,71,2.16,2,2,0,2,1199,2262,305,1664,71,71,0,71,1.20,2.90,0.50,2.25
2016-05-14 11:40:00,2,1559,71,1.82,2,2,0,2,1183,1732,143,1596,71,71,0,71,1.60,2.30,0.22,1.75
2016-05-14 11:50:00,2,1251,71,1.81,2,2,0,2,1113,1403,101,1262,71,71,0,71,1.25,2.55,0.37,1.90
2016-05-14 12:00:00,2,1310,71,1.61,2,2,0,2,1242,1434,56,1298,71,71,0,71,1.10,2.00,0.24,1.62
2016-05-14 12:10:00,2,1636,71,1.37,2,2,0,2,1163,2155,288,1632,71,71,0,71,0.80,1.75,0.29,1.38
2016-05-14 12:20:00,2,1494,71,1.58,2,2,0,2,1295,1772,157,1436,71,71,0,71,1.00,2.40,0.38,1.55
2016-05-14 12:30:00,2,1647,71,1.08,2,2,0,2,1424,1900,157,1640,71,71,0,71,0.85,1.70,0.24,1.02
2016-05-14 12:40:00,2,1671,71,1.27,2,2,0,2,1468,1955,150,1656,71,71,0,71,0.85,1.80,0.26,1.18
2016-05-14 12:50:00,2,1751,71,1.10,2,2,0,2,1440,1988,178,1762,71,71,0,71,0.90,1.55,0.20,1.02
2016-05-14 13:00:00,2,2026,71,1.02,2,2,0,2,1671,2238,185,2058,71,71,0,71,0.65,1.50,0.26,0.95
2016-05-14 13:10:00,2,2009,71,1.23,2,2,0,2,1463,2757,424,1931,71,71,0,71,0.40,2.30,0.53,1.30
2016-05-14 13:20:00,2,1833,71,1.07,2,2,0,2,1488,2357,255,1768,71,71,0,71,0.75,1.50,0.23,1.08
2016-05-14 13:30:00,2,2119,71,0.90,2,2,0,2,1784,2520,259,2125,71,71,0,71,0.55,1.20,0.21,0.95
2016-05-14 13:40:00,2,1959,71,0.74,2,2,0,2,1705,2319,219,1884,71,71,0,71,0.35,1.15,0.23,0.70
2016-05-14 13:50:00,2,2008,71,0.68,2,2,0,2,1649,2302,193,2011,71,71,0,71,0.40,0.90,0.15,0.70
2016-05-14 14:00:00,2,1582,71,1.25,2,2,0,2,1310,2241,291,1480,71,71,0,71,0.55,1.80,0.40,1.15
2016-05-14 14:10:00,2,1359,71,1.31,2,2,0,2,1094,1640,162,1296,71,71,0,71,0.75,2.00,0.33,1.33
2016-05-14 14:20:00,2,1385,71,1.12,2,2,0,2,1197,1608,109,1396,71,71,0,71,0.95,1.50,0.17,1.05
2016-05-14 14:30:00,2,1362,71,1.06,2,2,0,2,1225,1512,109,1372,71,71,0,71,0.70,1.35,0.17,1.08
2016-05-14 14:40:00,2,1583,71,1.09,2,2,0,2,1430,1739,98,1584,71,71,0,71,0.85,1.70,0.23,1.02
2016-05-14 14:50:00,2,1798,71,0.88,2,2,0,2,1557,2117,142,1774,71,71,0,71,0.65,1.25,0.19,0.83
2016-05-14 15:00:00,2,2004,71,0.84,2,2,0,2,1775,2330,166,2011,71,71,0,71,0.60,1.25,0.19,0.80
2016-05-14 15:10:00,2,1824,71,0.96,2,2,0,2,1464,2236,276,1708,71,71,0,71,0.55,1.40,0.30,1.00
2016-05-14 15:20:00,2,1835,71,0.94,2,2,0,2,1574,2245,218,1792,71,71,0,71,0.55,1.35,0.28,0.90
2016-05-14 15:30:00,2,1817,71,0.95,2,2,0,2,1587,2140,188,1827,71,71,0,71,0.65,1.60,0.27,0.92
2016-05-14 15:40:00,2,1979,71,0.82,2,2,0,2,1840,2209,113,1974,71,71,0,71,0.55,1.05,0.16,0.83
2016-05-14 15:50:00,2,1492,71,1.19,2,2,0,2,1301,1779,170,1421,71,71,0,71,0.70,1.60,0.27,1.18
2016-05-14 16:00:00,2,2326,71,0.87,2,2,0,2,1930,2992,313,2284,71,71,0,71,0.75,1.20,0.15,0.80
2016-05-14 16:10:00,2,2639,71,1.19,2,2,0,2,2227,3013,242,2648,71,71,0,71,0.60,1.90,0.35,1.12
2016-05-14 16:20:00,2,2653,73,1.26,2,2,0,2,2398,3109,178,2631,71,77,3,71,0.60,1.75,0.36,1.25
2016-05-14 16:30:00,2,2479,73,1.69,2,2,0,2,2125,3108,254,2425,71,77,3,71,0.90,2.75,0.58,1.52
2016-05-14 16:40:00,2,2418,71,2.03,2,2,0,2,2088,2711,191,2414,71,71,0,71,1.20,2.90,0.60,1.93
2016-05-14 16:50:00,2,2042,71,1.60,2,2,0,2,1792,2284,151,2072,71,71,0,71,1.05,2.00,0.31,1.68
2016-05-14 17:00:00,2,1980,71,1.20,2,2,0,2,1759,2298,166,1950,71,71,0,71,0.80,1.75,0.25,1.15
2016-05-14 17:10:00,2,1799,71,1.12,2,2,0,2,1642,2020,126,1831,71,71,0,71,0.75,1.75,0.30,1.08
2016-05-14 17:20:00,2,1677,71,1.08,2,2,0,2,1531,1786,91,1714,71,71,0,71,0.85,1.30,0.14,1.08
2016-05-14 17:30:00,2,1888,71,0.89,2,2,0,2,1736,2027,98,1836,71,71,0,71,0.60,1.35,0.21,0.90
2016-05-14 17:40:00,2,2070,71,1.02,2,2,0,2,1757,2338,159,2046,71,71,0,71,0.45,1.55,0.36,1.08
2016-05-14 17:50:00,2,1463,71,2.16,2,2,0,2,1237,1568,98,1496,71,71,0,71,1.35,3.10,0.46,2.08
2016-05-14 18:00:00,2,1371,71,2.30,2,2,0,2,1251,1478,72,1396,71,71,0,71,1.65,3.15,0.51,2.20
2016-05-14 18:10:00,2,1377,71,2.31,2,2,0,2,1256,1466,63,1388,71,71,0,71,1.90,2.55,0.20,2.38
2016-05-14 18:20:00,2,1402,71,2.44,2,2,0,2,1210,1633,125,1372,71,71,0,71,1.70,3.80,0.65,2.27
2016-05-14 18:30:00,2,1374,71,2.52,2,2,0,2,1116,1602,146,1364,71,71,0,71,1.55,3.25,0.50,2.62
2016-05-14 18:40:00,2,1024,71,4.30,2,2,0,2,911,1214,85,1022,71,71,0,71,2.85,5.25,0.78,4.53
2016-05-14 18:50:00,2,902,72,5.79,2,2,0,2,718,1060,92,908,71,72,0,72,4.20,7.45,0.95,5.72
2016-05-14 19:00:00,2,834,72,5.92,2,2,0,2,715,963,76,832,72,72,0,72,4.35,7.20,0.95,5.85
2016-05-14 19:10:00,2,911,72,5.67,2,2,0,2,785,1134,97,896,71,72,0,72,4.05,8.15,1.41,5.43
2016-05-14 19:20:00,2,1086,71,4.63,2,2,0,2,979,1296,94,1056,71,71,0,71,3.55,6.15,0.88,4.57
2016-05-14 19:30:00,2,1436,71,4.01,2,2,0,2,1032,1705,195,1434,71,71,0,71,2.90,4.90,0.57,3.98
2016-05-14 19:40:00,2,1594,71,4.25,2,2,0,2,1323,1812,177,1626,71,71,0,71,2.45,6.25,1.04,4.45
2016-05-14 19:50:00,2,1703,71,3.26,2,2,0,2,1380,1959,187,1686,71,71,0,71,1.90,6.70,1.37,2.80
2016-05-14 20:00:00,2,1862,71,3.82,2,2,0,2,1388,2569,401,1734,71,71,0,71,2.10,5.75,1.20,3.62
2016-05-14 20:10:00,2,2433,71,2.38,2,2,0,2,1794,3319,428,2366,71,71,0,71,1.00,3.35,0.62,2.38
2016-05-14 20:20:00,2,2986,71,1.35,2,2,0,2,2549,3401,241,3008,71,71,0,71,0.60,2.30,0.49,1.25
2016-05-14 20:30:00,2,3435,71,1.12,2,2,0,2,2588,4532,532,3314,71,71,0,71,0.45,1.80,0.47,1.07
2016-05-14 20:40:00,2,3322,71,0.99,2,2,0,2,2997,3725,240,3248,71,71,0,71,0.45,1.75,0.35,0.97
2016-05-14 20:50:00,2,4385,71,0.56,2,2,0,2,3620,5192,439,4372,71,71,0,71,0.30,0.75,0.15,0.57
2016-05-14 21:00:00,2,4657,71,0.56,2,2,0,2,3771,5297,401,4702,71,71,0,71,0.25,1.05,0.23,0.53
2016-05-14 21:10:00,2,5604,71,0.20,2,2,0,2,4736,6939,893,5070,71,71,0,71,0.05,0.50,0.13,0.20
2016-05-14 21:20:00,2,6556,71,0.06,2,2,0,2,5972,7048,359,6697,71,71,0,71,0.00,0.20,0.07,0.05
2016-05-14 21:30:00,2,4549,77,0.02,2,2,0,2,3155,5882,714,4540,77,77,0,77,0.00,0.05,0.02,0.00
2016-05-14 21:40:00,2,3360,77,0.05,2,2,0,2,2698,4568,473,3302,77,77,0,77,0.00,0.10,0.02,0.05
2016-05-14 21:50:00,2,4068,77,0.03,2,2,0,2,2922,5110,648,3886,77,77,0,77,0.00,0.05,0.02,0.05
2016-05-14 22:00:00,2,4225,73,0.23,2,2,0,2,3604,5113,497,4022,71,77,3,71,0.05,0.50,0.14,0.23
2016-05-14 22:10:00,2,5326,71,0.24,2,2,0,2,3824,7341,1116,5427,71,71,0,71,0.05,0.45,0.16,0.22
2016-05-14 22:20:00,2,5371,73,0.17,2,2,0,2,4335,7029,704,5302,71,77,3,71,0.05,0.30,0.10,0.15
2016-05-14 22:30:00,2,4631,76,0.11,2,2,0,2,3672,5408,555,4643,71,77,2,77,0.05,0.20,0.05,0.10
2016-05-14 22:40:00,2,4401,77,0.15,2,2,0,2,3659,5679,661,4134,77,78,0,77,0.05,0.30,0.07,0.15
2016-05-14 22:50:00,2,7416,75,0.14,2,2,0,2,5221,9309,1128,7468,71,78,3,77,0.05,0.40,0.11,0.10
2016-05-14 23:00:00,2,10579,75,0.01,2,2,0,2,8219,12789,1128,10532,71,78,3,77,0.00,0.05,0.02,0.00
2016-05-14 23:10:00,2,14730,70,0.00,2,2,0,2,10260,24421,4008,13038,0,78,23,78,0.00,0.00,0.00,0.00
2016-05-14 23:20:00,2,24066,0,0.00,2,2,0,2,14705,33519,6000,22764,0,0,0,0,0.00,0.00,0.00,0.00
2016-05-14 23:30:00,2,39633,0,0.00,2,2,0,2,32237,49795,6286,35736,0,0,0,0,0.00,0.00,0.00,0.00
2016-05-14 23:40:00,2,18581,0,0.00,2,2,0,2,12275,32071,5449,17212,0,0,0,0,0.00,0.00,0.00,0.00
2016-05-14 23:50:00,2,24016,0,0.00,2,2,0,2,16032,41231,8508,20498,0,0,0,0,0.00,0.00,0.00,0.00
